Location: Gradaro
(45.0833°N, 10.8833°E)
Time: 14:43:18
(UTC+00:00)

COSMOS 2406 - Pass Details

Date: 29 November 2020
Orbit: 840 x 866 km, 71.0° (Epoch: 24 January)

Event Time Altitude Azimuth Distance (km) Brightness Sun altitude
Exits shadow 05:18:20 - 339° (NNW) 3,213 5.8 -12.8°
Reaches altitude 10° 05:20:18 10° 344° (NNW) 2,503 5.3 -12.5°
Maximum altitude 05:25:49 46° 57° (ENE) 1,147 4.2 -11.5°
Drops below altitude 10° 05:31:20 10° 131° (SE) 2,502 6.9 -10.6°
Sets 05:33:54 0° 137° (SE) 3,437 7.6 -10.2°
